Location: Namasale
(1.5000°N, 32.6167°E)
Time: 18:06:55
(UTC+00:00)

Vanguard 1 Rocket - Pass Details

Date: 24 April 2021
Orbit: 651 x 4225 km, 34.3° (Epoch: 17 May)

Event Time Altitude Azimuth Distance (km) Brightness Sun altitude
Rises 07:36:41 0° 247° (WSW) 7,650 11.8 55.6°
Reaches altitude 10° 07:43:04 10° 253° (WSW) 6,098 11.4 57.1°
Maximum altitude 07:58:15 40° 317° (NW) 2,681 10.2 60.6°
Drops below altitude 10° 08:06:30 10° 26° (NNE) 3,355 10.8 62.4°
Sets 08:08:57 0° 34° (NE) 4,010 11.0 63.0°
